This demonstration page uses our WeatherBlox Daily Observations layout. Learn more.

Left ArrowRight Arrow

39.51506, -84.39828

Hourly Observations for August 11, 2022

Temp ( °F °C ) Dew Point ( °F °C ) Humidity (%) Winds ( mph kmh ) Pressure ( in mb ) Visibility ( mi km ) Precip ( " mm )
12:15 am 00:15 Clear 66 18.8 N/A N/A Calm 30.11 1020 10 16 0.00 0.00
12:35 am 00:35 Clear 66 19.1 N/A N/A N 3 6 30.11 1020 10 16 0.00 0.00
12:55 am 00:55 Clear 65 18.5 N/A N/A N 3 6 30.11 1020 10 16 0.00 0.00
1:15 am 01:15 Clear 64 17.7 N/A N/A N 3 6 30.10 1019 10 16 0.00 0.00
1:35 am 01:35 Clear 64 17.9 N/A N/A N 5 7 30.10 1019 10 16 0.00 0.00
1:55 am 01:55 Clear 64 17.7 N/A N/A N 5 7 30.10 1019 10 16 0.00 0.00
2:15 am 02:15 Clear 64 18 N/A N/A N 5 7 30.10 1019 10 16 0.00 0.00
2:35 am 02:35 Clear 63 17.4 N/A N/A Calm 30.10 1019 10 16 0.00 0.00
2:55 am 02:55 Clear 63 17.1 N/A N/A N 3 6 30.11 1020 10 16 0.00 0.00
3:15 am 03:15 Clear 62 16.4 N/A N/A Calm 30.11 1020 7 11 0.00 0.00
3:35 am 03:35 Clear 62 16.9 N/A N/A NNE 6 9 30.11 1020 10 16 0.00 0.00
4:15 am 04:15 Clear 61 16.3 N/A N/A Calm 30.11 1020 10 16 0.00 0.00
4:35 am 04:35 Clear with Mist and Fog 62 16.5 N/A N/A Calm 30.11 1020 3 4 0.00 0.00
4:55 am 04:55 Hazy 60 15.8 N/A N/A Calm 30.12 1020 5 8 0.00 0.00
5:15 am 05:15 Hazy 60 15.7 N/A N/A Calm 30.10 1019 7 11 0.00 0.00
5:35 am 05:35 Mostly Clear with Fog 61 16.2 N/A N/A Calm 30.11 1020 1 1 0.00 0.00
5:55 am 05:55 Mostly Clear with Mist and Fog 61 15.9 N/A N/A Calm 30.09 1019 1 1 0.00 0.00
6:15 am 06:15 Clear with Mist and Fog 60 15.8 N/A N/A Calm 30.10 1019 2 3 0.00 0.00
6:35 am 06:35 Mostly Clear with Fog 60 15.4 N/A N/A Calm 30.10 1019 0 0 0.00 0.00
6:55 am 06:55 Partly Cloudy with Fog 60 15.6 N/A N/A Calm 30.12 1020 0 0 0.00 0.00
7:15 am 07:15 Sunny with Mist and Fog 59 15 N/A N/A Calm 30.11 1020 3 5 0.00 0.00
7:35 am 07:35 Hazy 61 16.1 N/A N/A Calm 30.12 1020 5 8 0.00 0.00
7:55 am 07:55 Sunny 62 16.8 N/A N/A Calm 30.12 1020 10 16 0.00 0.00
8:15 am 08:15 Sunny 64 17.6 N/A N/A Calm 30.12 1020 10 16 0.00 0.00
8:35 am 08:35 Sunny 65 18.3 N/A N/A Calm 30.13 1020 10 16 0.00 0.00
8:55 am 08:55 Sunny 67 19.5 65 18.4 93 93 Calm 30.12 1020 10 16 0.00 0.00
9:15 am 09:15 Sunny 69 20.5 65 18.3 87 87 Calm 30.12 1020 10 16 0.00 0.00
9:35 am 09:35 Sunny 71 21.4 65 18.2 82 82 Calm 30.11 1020 10 16 0.00 0.00
9:55 am 09:55 Sunny 73 22.5 65 18.3 77 77 NNE 6 9 30.11 1020 10 16 0.00 0.00
10:15 am 10:15 Sunny 74 23.5 64 17.7 70 70 N 6 9 30.11 1020 10 16 0.00 0.00
10:30 am 10:30 Sunny 75 24 63 17.3 66 66 NNE 5 7 30.11 1019 10 16 0.00 0.00
10:55 am 10:55 Sunny 76 24.3 62 16.8 63 63 NNE 3 6 30.10 1019 10 16 0.00 0.00
11:15 am 11:15 Sunny 77 25.1 62 16.5 59 59 WNW 3 6 30.10 1019 10 16 0.00 0.00
11:35 am 11:35 Sunny 78 25.5 59 15 52 52 N 5 7 30.10 1019 10 16 0.00 0.00
11:55 am 11:55 Sunny 79 25.9 60 15.3 52 52 NNW 5 7 30.10 1019 10 16 0.00 0.00
12:15 pm 12:15 Sunny 79 26 60 15.6 53 53 NNW 6 9 30.10 1019 10 16 0.00 0.00
12:35 pm 12:35 Sunny 79 26.2 61 15.9 53 53 N 7 11 30.09 1019 10 16 0.00 0.00
12:50 pm 12:50 Sunny 80 26.7 62 16.4 53 53 NW 8 13 30.09 1019 10 16 0.00 0.00
1:15 pm 13:15 Sunny 80 26.9 62 16.6 53 53 N 6 9 30.08 1019 10 16 0.00 0.00
1:35 pm 13:35 Partly Cloudy 81 27.4 62 16.6 52 52 NNW 7 11 30.08 1019 10 16 0.00 0.00
1:55 pm 13:55 Sunny 82 27.5 61 16.3 50 50 NNW 5 7 30.07 1018 10 16 0.00 0.00
2:15 pm 14:15 Sunny 82 27.5 61 16.3 50 50 N 5 7 30.07 1018 10 16 0.00 0.00
2:35 pm 14:35 Partly Cloudy 82 27.9 62 16.4 50 50 N 7 11 30.07 1018 10 16 0.00 0.00
2:55 pm 14:55 Sunny 83 28.5 61 16.2 47 47 NW 6 9 30.05 1018 10 16 0.00 0.00
3:15 pm 15:15 Partly Cloudy 82 27.7 62 16.5 51 51 NW 7 11 30.06 1018 10 16 0.00 0.00
3:35 pm 15:35 Cloudy 81 27.4 62 16.7 52 52 NW 7 11 30.05 1018 10 16 0.00 0.00
3:55 pm 15:55 Cloudy 81 27.1 63 17.3 55 55 NNW 7 11 30.05 1018 10 16 0.00 0.00
4:15 pm 16:15 Partly Cloudy 83 28.5 63 17.2 50 50 NW 7 11 30.04 1017 10 16 0.00 0.00
4:35 pm 16:35 Partly Cloudy 82 27.8 63 17.4 53 53 NNW 7 11 30.04 1017 10 16 0.00 0.00
4:55 pm 16:55 Partly Cloudy 83 28.1 65 18.1 55 55 N 8 13 30.04 1017 10 16 0.00 0.00
5:15 pm 17:15 Partly Cloudy 81 27.4 63 17.3 54 54 N 6 9 30.03 1017 10 16 0.00 0.00
5:35 pm 17:35 Mostly Cloudy 82 27.9 62 16.8 51 51 NW 3 6 30.02 1016 10 16 0.00 0.00
5:55 pm 17:55 Mostly Cloudy 80 26.9 64 17.9 58 58 N 6 9 30.02 1017 10 16 0.00 0.00
6:15 pm 18:15 Cloudy 79 26.2 65 18.3 62 62 N 9 15 30.02 1017 10 16 0.00 0.00
6:35 pm 18:35 Mostly Cloudy with Haze 78 25.8 65 18.6 65 65 N 8 13 30.03 1017 7 11 0.00 0.00
6:55 pm 18:55 Cloudy 78 25.8 66 18.8 65 65 N 8 13 30.03 1017 7 11 0.00 0.00
7:15 pm 19:15 Mostly Cloudy with Haze 79 26.1 66 18.7 64 64 N 10 17 30.03 1017 7 11 0.00 0.00
7:35 pm 19:35 Hazy 77 25.2 66 18.7 67 67 N 9 15 30.03 1017 5 8 0.00 0.00
7:55 pm 19:55 Hazy 76 24.6 65 18.6 69 69 N 12 19 30.04 1017 5 8 0.00 0.00
8:15 pm 20:15 Hazy 75 24 66 18.7 72 72 N 10 17 30.06 1018 5 8 0.00 0.00
8:35 pm 20:35 Hazy 74 23.3 66 18.7 75 75 N 9 15 30.06 1018 7 11 0.00 0.00
8:55 pm 20:55 Mostly Cloudy with Haze 74 23.2 64 17.5 70 70 NNE 9 15 30.07 1018 7 11 0.00 0.00
9:15 pm 21:15 Cloudy 73 22.7 63 17.2 71 71 N 9 15 30.08 1019 7 11 0.00 0.00
9:35 pm 21:35 Cloudy 72 22.3 64 17.6 75 75 N 7 11 30.09 1019 10 16 0.00 0.00
9:55 pm 21:55 Mostly Cloudy 71 21.5 64 17.6 78 78 N 7 11 30.09 1019 10 16 0.00 0.00
10:15 pm 22:15 Clear 70 21 63 17.3 79 79 N 7 11 30.10 1019 10 16 0.00 0.00
10:35 pm 22:35 Clear 68 20.1 64 17.8 87 87 NNW 6 9 30.11 1019 10 16 0.00 0.00
10:55 pm 22:55 Clear 67 19.7 64 17.7 88 88 N 6 9 30.12 1020 10 16 0.00 0.00
11:15 pm 23:15 Clear 67 19.4 63 17.4 88 88 N 5 7 30.12 1020 10 16 0.00 0.00
11:35 pm 23:35 Clear 66 19 63 17.1 89 89 N 5 7 30.12 1020 10 16 0.00 0.00
11:55 pm 23:55 Clear 65 18.6 63 17.2 92 92 N 5 7 30.12 1020 10 16 0.00 0.00

Powered by AerisWeather